Flag for Germany Weather past 2 weeks in Aalen, Baden-Württemberg, Germany

Now
35 °F

Partly sunny.


Feels Like: 28 °F
Forecast: 32 / 38 °F
Wind: 8 mph from Northwest

Location: Stoetten

Current Time: Mar 4, 2015 at 6:00:54 PM

Latest Report: Mar 4, 2015 at 5:00 PM


Visibility: 44 mi

Pressure: 30.35 "Hg

Humidity: 63%

Dew point: 24 °F

Location of AalenLocation

Historic Weather in Aalen — Graph

°F

Aalen temperature yesterday

Maximum temperature yesterday: 40 °F (at 4:00 PM)
Minimum temperature yesterday: 30 °F (at 8:00 AM)
Average temperature yesterday: 35 °F

Past Weeks' High & Low Weather Summary

 TemperatureHumidityPressure
High45 °F (Feb 20, 3:00 PM)100% (Feb 17, 8:00 PM)30.79 "Hg (Feb 17, 8:00 PM)
Low23 °F (Feb 19, 7:00 AM)36% (Feb 21, 1:00 AM)29.54 "Hg (Feb 21, 1:00 PM)
Average32 °F85%30.07 "Hg
* Reported Feb 17 4:00 PM — Mar 4 4:00 PM, Aalen, Weather by CustomWeather, © 2015

Note: Actual official high and low records may vary slightly from our data, if they occured in-between our weather recording intervals... More about our weather records

Advertising

Aalen weather history for previous 24 hours

 ConditionsComfort  
Time TempWeatherWind HumidityBarometerVisibility
4:00 PM
Wed, Mar 4
36 °FPartly sunny.6 mph56%30.33 "Hg47 mi
3:00 PM36 °FPartly sunny.7 mph56%30.32 "Hg43 mi
2:00 PM35 °FScattered clouds.7 mph62%30.33 "Hg43 mi
1:00 PM34 °FOvercast.7 mph67%30.35 "Hg43 mi
12:00 PM33 °FOvercast.7 mph72%30.35 "Hg40 mi
11:00 AM32 °FOvercast.8 mph78%30.35 "Hg40 mi
10:00 AM31 °FOvercast.6 mph88%30.36 "Hg40 mi
9:00 AM30 °FOvercast.7 mph89%30.35 "Hg37 mi
8:00 AM30 °FLow clouds.8 mph93%30.33 "Hg31 mi
7:00 AM31 °FLow clouds.7 mph98%30.30 "Hg11 mi
6:00 AM31 °FFog.6 mph100%30.29 "Hg19 mi
5:00 AM31 °FLow clouds.7 mph100%30.25 "Hg0 mi
4:00 AM31 °FSnow flurries. Low clouds.8 mph100%30.24 "Hg0 mi
3:00 AM31 °FLight snow. Low clouds.9 mph100%30.24 "Hg0 mi
2:00 AM32 °FLight snow. Low clouds.8 mph100%30.23 "Hg0 mi
1:00 AM37 °FOvercast.13 mph76%30.16 "Hg31 mi
12:00 AM39 °FOvercast.15 mph66%30.14 "Hg43 mi
11:00 PM
Tue, Mar 3
40 °FOvercast.14 mph61%30.13 "Hg43 mi
10:00 PM38 °FOvercast.8 mph68%30.16 "Hg43 mi
9:00 PM39 °FOvercast.7 mph64%30.15 "Hg47 mi
8:00 PM38 °FOvercast.8 mph65%30.16 "Hg47 mi
7:00 PM36 °FPassing clouds.6 mph69%30.16 "Hg47 mi
6:00 PM38 °FPartly sunny.7 mph65%30.15 "Hg47 mi
Weather by CustomWeather, © 2015

See weather overviewHow to use our weather pages